IK1ZQJ Torino IT current weather conditions

sailwx.info

Wind from 225 at 4 knots gusting 2

Air temperature 15.6° C

Last reported at 2020-Feb-28 14:56 UTC.
Time now 2020-Feb-28 15:21 UTC

Location: N 45°06' E 007°39'.
View on Google Maps.

See reports from other nearby stations

  
Tides and Currents Weather Stations Pressure Air Temp Water Temp Dewpoint Dewpoint Depression Visibility Wind Speed Wind Dir Waves Ship Positions
date/time (UTC)wind fromknots sea level pressurealtimeterstation pressurevisibilityair tempwater tempwave heightnotes
2020-Feb-28 14:56 225 4 gusting 2 15.6
2020-Feb-28 14:51 225 1 gusting 1 19.4
2020-Feb-28 14:46 225 10.6
2020-Feb-28 14:41 225 1 gusting 0 15.6
2020-Feb-28 14:36 225 15.6
2020-Feb-28 14:31 225 0 gusting 2 15.6
2020-Feb-28 14:26 225 1 gusting 2 15.6
2020-Feb-28 14:21 225 0 gusting 1 17.2
2020-Feb-28 14:11 225 15.6
2020-Feb-28 14:06 225 1 gusting 1 10.6
2020-Feb-28 14:01 225 1 gusting 2 15.6
2020-Feb-28 13:56 225 0 gusting 4 15.0
2020-Feb-28 13:51 225 2 gusting 2 15.0
2020-Feb-28 13:46 225 2 gusting 1 10.6
2020-Feb-28 13:41 225 0 gusting 2 16.1
2020-Feb-28 13:36 225 15.6
2020-Feb-28 13:31 225 10.6
2020-Feb-28 13:26 225 15.0
2020-Feb-28 13:21 225 0 gusting 5 10.6
2020-Feb-28 13:16 225 3 gusting 5 14.4
2020-Feb-28 13:11 225 4 gusting 1 10.6
2020-Feb-28 13:06 225 1 gusting 2 15.6
2020-Feb-28 12:56 225 4 gusting 1 19.4
2020-Feb-28 12:51 225 15.6
2020-Feb-28 12:46 225 0 gusting 1 15.6
2020-Feb-28 12:31 225 1 gusting 0 10.0
2020-Feb-28 12:26 225 15.0
2020-Feb-28 12:21 225 15.0
2020-Feb-28 12:16 225 1 gusting 4 14.4
2020-Feb-28 12:11 225 2 gusting 2 14.4
2020-Feb-28 12:06 225 0 gusting 2 10.0
2020-Feb-28 11:56 225 0 gusting 4 15.0
2020-Feb-28 11:51 225 2 gusting 4 15.0
2020-Feb-28 11:46 202 0 gusting 1 18.9
2020-Feb-28 11:41 202 10.0
2020-Feb-28 11:36 202 1 gusting 4 18.9
2020-Feb-28 11:31 202 0 gusting 1 15.0
2020-Feb-28 11:21 202 1 gusting 2 17.2
2020-Feb-28 11:16 202 1 gusting 4 18.9
2020-Feb-28 11:11 202 1 gusting 2 18.9
2020-Feb-28 10:56 090 14.4
2020-Feb-28 10:51 090 0 gusting 2 8.9
2020-Feb-28 10:46 090 1 gusting 1 13.9
2020-Feb-28 10:36 090 1 gusting 1 8.9
2020-Feb-28 10:31 090 0 gusting 3 13.9
2020-Feb-28 10:21 090 0 gusting 1 13.9
2020-Feb-28 10:16 090 0 gusting 2 8.9
2020-Feb-28 10:11 090 1 gusting 1 13.3
2020-Feb-28 10:01 090 0 gusting 3 12.8
2020-Feb-28 09:56 090 1 gusting 3 12.8
2020-Feb-28 09:51 090 1 gusting 1 12.2
2020-Feb-28 09:31 067 0 gusting 4 11.7
2020-Feb-28 09:26 067 1 gusting 4 7.8
2020-Feb-28 09:16 045 1 gusting 5 17.2
2020-Feb-28 09:11 045 3 gusting 0 11.7
2020-Feb-28 09:06 067 0 gusting 2 7.2
2020-Feb-28 09:01 067 0 gusting 5 17.2
2020-Feb-28 08:56 067 2 gusting 6 7.2
2020-Feb-28 08:36 067 0 gusting 4 12.8
2020-Feb-28 08:31 067 17.2
2020-Feb-28 08:26 022 6.1
2020-Feb-28 08:11 022 17.2
2020-Feb-28 08:06 022 10.6
2020-Feb-28 08:01 022 0 gusting 1 9.4
2020-Feb-28 07:46 022 0 gusting 3 5.6
2020-Feb-28 07:36 022 0 gusting 1 6.1
2020-Feb-28 07:31 022 0 gusting 1 17.2
2020-Feb-28 07:21 022 2 gusting 1 4.4
2020-Feb-28 07:16 022 0 gusting 0 3.9
2020-Feb-28 07:11 022 3.9
2020-Feb-28 07:01 022 0 gusting 0 3.9
2020-Feb-28 06:56 022 5.0
2020-Feb-28 06:51 022 3.9
2020-Feb-28 06:41 022 3.9
2020-Feb-28 06:36 022 3.9
2020-Feb-28 06:31 022 17.2
2020-Feb-28 06:26 022 4.4
2020-Feb-28 06:21 022 4.4
2020-Feb-28 06:16 022 5.0
2020-Feb-28 06:11 022 0 gusting 1 5.0
2020-Feb-28 06:06 022 5.6
2020-Feb-28 06:01 022 5.6
2020-Feb-28 05:56 022 2 gusting 1 5.6
2020-Feb-28 05:51 022 5.6
2020-Feb-28 05:46 022 1 gusting 2 6.1
2020-Feb-28 05:41 022 0 gusting 2 5.0
2020-Feb-28 05:36 022 0 gusting 5 5.6
2020-Feb-28 05:31 022 4 gusting 5 5.0
2020-Feb-28 05:21 022 2 gusting 3 4.4
2020-Feb-28 05:11 022 0 gusting 1 4.4
2020-Feb-28 05:06 022 3.9
2020-Feb-28 05:01 022 0 gusting 0 3.9
2020-Feb-28 04:51 022 0 gusting 1 3.9
2020-Feb-28 04:41 022 1 3.9
2020-Feb-28 04:36 022 3.9
2020-Feb-28 04:31 022 17.8
2020-Feb-28 04:21 022 0 3.9
2020-Feb-28 04:16 022 3.9
2020-Feb-28 04:11 022 3.9
2020-Feb-28 03:56 022 0 gusting 1 4.4
2020-Feb-28 03:51 022 3.9
2020-Feb-28 03:46 022 1 gusting 3 17.8
2020-Feb-28 03:36 022 4 gusting 2 3.9
2020-Feb-28 03:31 022 2 gusting 0 3.9
2020-Feb-28 03:21 022 1 gusting 1 17.8
2020-Feb-28 03:11 022 3.9
2020-Feb-28 03:06 022 2 gusting 0 3.9
2020-Feb-28 02:56 022 3.9
2020-Feb-28 02:51 022 0 gusting 4 3.9
2020-Feb-28 02:46 022 3 gusting 2 3.3
2020-Feb-28 02:41 022 0 gusting 1 3.3
2020-Feb-28 02:31 022 2.8
2020-Feb-28 02:26 022 3 gusting 1 3.3
2020-Feb-28 02:21 022 0 gusting 1 2.8
2020-Feb-28 02:16 022 0 gusting 1 2.2
2020-Feb-28 02:11 022 0 2.2
2020-Feb-28 02:06 022 2.2
2020-Feb-28 02:01 022 0 gusting 0 2.2
2020-Feb-28 01:51 022 0 gusting 0 2.2
2020-Feb-28 01:41 022 1 gusting 1 2.2
2020-Feb-28 01:36 022 0 gusting 1 2.2
2020-Feb-28 01:31 022 1 gusting 1 2.2
2020-Feb-28 01:26 022 2.2
2020-Feb-28 01:21 022 0 gusting 0 3.3
2020-Feb-28 01:16 022 3.3
2020-Feb-28 01:11 022 1 gusting 3 2.2
2020-Feb-28 01:06 022 2 gusting 2 2.8
2020-Feb-28 01:01 022 0 gusting 5 3.3
2020-Feb-28 00:51 022 1 gusting 3 17.8
2020-Feb-28 00:46 022 2 gusting 1 2.8
2020-Feb-28 00:41 022 0 gusting 1 2.2
2020-Feb-28 00:36 022 0 gusting 0 17.8
2020-Feb-28 00:26 022 17.8
2020-Feb-28 00:21 022 2.8
2020-Feb-28 00:11 022 0 gusting 3 18.3
2020-Feb-28 00:06 022 0 gusting 2 3.9
2020-Feb-27 23:56 022 0 gusting 2 2.8
2020-Feb-27 23:46 022 1 gusting 3 3.3
2020-Feb-27 23:41 022 1 gusting 1 3.3
2020-Feb-27 23:36 022 0 gusting 3 3.3
2020-Feb-27 23:31 022 1 gusting 3 3.3
2020-Feb-27 23:16 022 3.9
2020-Feb-27 23:11 022 3.9
2020-Feb-27 22:56 022 3.9
2020-Feb-27 22:51 022 0 gusting 1 5.0
2020-Feb-27 22:41 022 18.3
2020-Feb-27 22:36 022 5.0
2020-Feb-27 22:26 022 3.9
2020-Feb-27 22:21 022 5.0
2020-Feb-27 22:16 022 0 gusting 3 4.4
2020-Feb-27 22:06 022 4.4
2020-Feb-27 22:01 022 18.3
2020-Feb-27 21:56 022 20.6
2020-Feb-27 21:51 022 0 gusting 1 5.0
2020-Feb-27 21:46 022 5.6
2020-Feb-27 21:36 022 0 gusting 1 5.0
2020-Feb-27 21:31 022 5.0
2020-Feb-27 21:26 022 18.3
2020-Feb-27 21:16 022 1 gusting 3 18.3
2020-Feb-27 21:11 022 2 gusting 1 5.6
2020-Feb-27 21:01 022 5.6
2020-Feb-27 20:51 022 0 gusting 2 5.0
2020-Feb-27 20:46 022 1 gusting 0 5.0
2020-Feb-27 20:36 022 5.0
2020-Feb-27 20:31 022 5.0
2020-Feb-27 20:21 022 5.0
2020-Feb-27 20:11 022 5.6
2020-Feb-27 19:46 022 0 gusting 1 5.6
2020-Feb-27 19:36 022 5.6
2020-Feb-27 19:26 022 5.6
2020-Feb-27 19:21 022 5.6
2020-Feb-27 19:16 022 5.6
2020-Feb-27 19:11 022 5.6
2020-Feb-27 19:06 022 5.6
2020-Feb-27 18:56 022 1 gusting 2 5.6
2020-Feb-27 18:51 022 6.1
2020-Feb-27 18:41 022 0 gusting 2 18.9
2020-Feb-27 18:36 022 0 gusting 1 5.6
2020-Feb-27 18:21 022 1 gusting 1 18.9
2020-Feb-27 18:16 022 1 gusting 2 6.1
2020-Feb-27 18:06 022 1 gusting 2 5.6
2020-Feb-27 18:01 022 1 gusting 1 5.6
2020-Feb-27 17:56 022 1 gusting 1 5.6
2020-Feb-27 17:41 022 0 gusting 3 5.6
2020-Feb-27 17:36 022 1 gusting 1 5.6
2020-Feb-27 17:31 022 1 gusting 3 21.7
2020-Feb-27 17:21 022 0 gusting 4 18.9
2020-Feb-27 17:16 022 3 gusting 4 5.6
2020-Feb-27 17:06 022 2 gusting 4 5.6
2020-Feb-27 17:01 022 1 gusting 4 5.6
2020-Feb-27 16:56 022 3 gusting 4 5.6
2020-Feb-27 16:51 022 4 gusting 5 22.2
2020-Feb-27 16:41 022 1 gusting 3 5.6
2020-Feb-27 16:36 022 1 gusting 3 19.4
2020-Feb-27 16:31 022 2 gusting 4 19.4
2020-Feb-27 16:21 022 3 gusting 5 6.7
2020-Feb-27 16:16 022 4 gusting 5 5.6
2020-Feb-27 16:11 022 2 gusting 3 7.2
2020-Feb-27 16:06 022 2 gusting 5 5.6
2020-Feb-27 16:01 022 1 gusting 3 21.7
2020-Feb-27 15:56 022 1 gusting 5 21.7
2020-Feb-27 15:51 022 4 gusting 4 5.6
2020-Feb-27 15:46 022 1 gusting 4 21.1
2020-Feb-27 15:36 022 3 gusting 6 20.6
2020-Feb-27 15:26 022 0 gusting 5 7.8
2020-Feb-27 15:16 022 4 gusting 8 7.8
2020-Feb-27 15:11 022 5 gusting 7 7.8
2020-Feb-27 15:06 8.3
2020-Feb-27 15:01 8.9
2020-Feb-27 14:56 337 4 gusting 5 20.6
2020-Feb-27 14:51 337 3 gusting 7 7.8
2020-Feb-27 14:46 20.6
2020-Feb-27 14:41 022 6 gusting 10 7.8
2020-Feb-27 14:36 292 4 gusting 5 20.0
2020-Feb-27 14:26 247 5 gusting 8 8.9
2020-Feb-27 14:21 247 4 gusting 6 10.0
2020-Feb-27 14:16 247 3 gusting 8 10.0
2020-Feb-27 14:11 247 3 gusting 6 10.0
2020-Feb-27 14:06 247 1 gusting 6 10.0
2020-Feb-27 14:01 247 2 gusting 4 10.0
2020-Feb-27 13:51 247 3 gusting 4 10.6
2020-Feb-27 13:26 247 1 gusting 4 20.0
2020-Feb-27 13:11 247 2 gusting 3 11.1
2020-Feb-27 12:51 247 2 gusting 2 19.4
2020-Feb-27 12:46 247 0 gusting 4 10.6
2020-Feb-27 12:41 247 2 gusting 1 10.6
2020-Feb-27 12:16 247 11.7
2020-Feb-27 12:01 247 2 gusting 4 11.7
2020-Feb-27 11:56 247 1 gusting 2 10.0
2020-Feb-27 11:41 247 1 gusting 5 18.9
2020-Feb-27 11:36 247 3 gusting 5 18.9
2020-Feb-27 11:31 247 10.6
2020-Feb-27 11:26 247 2 gusting 5 18.9
2020-Feb-27 11:21 247 4 gusting 4 8.9
2020-Feb-27 11:06 247 1 gusting 3 18.9
2020-Feb-27 11:01 247 2 gusting 3 10.6
2020-Feb-27 10:56 247 2 gusting 5 10.6
2020-Feb-27 10:46 247 3 gusting 4 10.6
2020-Feb-27 10:41 247 3 gusting 4 10.0
2020-Feb-27 10:16 247 2 gusting 4 19.4
2020-Feb-27 10:11 247 1 gusting 3 8.9
2020-Feb-27 10:06 247 2 gusting 4 7.2
2020-Feb-27 09:46 247 3 gusting 3 8.3
2020-Feb-27 09:41 247 1 gusting 3 19.4
2020-Feb-27 09:36 247 2 gusting 4 7.8
2020-Feb-27 09:31 247 2 gusting 4 6.1
2020-Feb-27 09:26 247 1 gusting 4 7.2
2020-Feb-27 09:11 247 2 gusting 3 6.7
2020-Feb-27 09:06 247 2 gusting 4 6.7
2020-Feb-27 08:56 247 1 gusting 3 21.1
2020-Feb-27 08:46 247 0 gusting 2 7.2
2020-Feb-27 08:41 247 0 gusting 3 18.9
2020-Feb-27 08:36 247 1 gusting 2 7.2
2020-Feb-27 08:26 247 0 gusting 2 18.3
2020-Feb-27 08:21 247 1 gusting 1 17.8
2020-Feb-27 08:06 247 5.0
2020-Feb-27 07:56 247 1 gusting 1 4.4
2020-Feb-27 07:51 247 4.4
2020-Feb-27 07:46 247 1 gusting 2 4.4
2020-Feb-27 07:36 247 2 gusting 2 4.4
2020-Feb-27 07:31 247 1 gusting 3 19.4
2020-Feb-27 07:26 247 2 gusting 3 2.8
2020-Feb-27 07:21 247 1 gusting 3 19.4
2020-Feb-27 07:16 247 1 gusting 1 2.2
2020-Feb-27 07:06 247 1 gusting 2 3.9
2020-Feb-27 07:01 247 1 gusting 2 2.2
2020-Feb-27 06:56 247 1 gusting 1 2.2
2020-Feb-27 06:51 247 0 gusting 0 2.2
2020-Feb-27 06:46 247 19.4
2020-Feb-27 06:36 247 19.4
2020-Feb-27 06:26 247 2.2
2020-Feb-27 06:21 247 2.2
2020-Feb-27 06:11 247 2.2
2020-Feb-27 06:01 247 2.8
2020-Feb-27 05:51 247 3.9
2020-Feb-27 05:46 247 19.4
2020-Feb-27 05:36 247 0 gusting 2 3.3
2020-Feb-27 05:31 247 0 gusting 3 19.4
2020-Feb-27 05:26 247 1 gusting 3 3.9
2020-Feb-27 05:16 247 1 gusting 2 3.9
2020-Feb-27 05:11 247 1 gusting 2 3.9
2020-Feb-27 05:06 247 1 gusting 1 3.3
2020-Feb-27 05:01 247 19.4
2020-Feb-27 04:56 247 3.3
2020-Feb-27 04:46 247 4.4
2020-Feb-27 04:36 247 0 gusting 0 3.3
2020-Feb-27 04:26 247 19.4
2020-Feb-27 04:16 247 3.9
2020-Feb-27 04:11 247 1 gusting 2 4.4
2020-Feb-27 04:01 247 4.4
2020-Feb-27 03:56 247 0 gusting 0 4.4
2020-Feb-27 03:51 247 19.4
2020-Feb-27 03:46 247 19.4
2020-Feb-27 03:41 247 0 gusting 2 5.0
2020-Feb-27 03:36 247 0 gusting 0 19.4
2020-Feb-27 03:31 247 5.6
2020-Feb-27 03:26 247 1 gusting 2 19.4
2020-Feb-27 03:16 247 0 gusting 2 5.0
2020-Feb-27 03:11 247 5.0
2020-Feb-27 03:01 247 5.0
2020-Feb-27 02:56 247 0 gusting 1 4.4
2020-Feb-27 02:51 247 19.4
2020-Feb-27 02:46 247 0 5.0
2020-Feb-27 02:36 247 5.0
2020-Feb-27 02:11 247 5.0
2020-Feb-27 02:06 247 5.0
2020-Feb-27 02:01 247 5.0
2020-Feb-27 01:51 247 1 gusting 1 19.4
2020-Feb-27 01:46 247 5.6
2020-Feb-27 01:41 247 19.4
2020-Feb-27 01:31 247 0 gusting 2 19.4
2020-Feb-27 01:26 247 1 gusting 1 19.4
2020-Feb-27 01:21 247 5.6
2020-Feb-27 01:16 247 0 gusting 2 5.6
2020-Feb-27 01:11 247 0 gusting 2 6.1
2020-Feb-27 01:06 247 1 gusting 3 6.1
2020-Feb-27 01:01 247 1 gusting 3 6.1
2020-Feb-27 00:56 247 1 gusting 4 6.7
2020-Feb-27 00:51 247 0 gusting 5 19.4
2020-Feb-27 00:46 247 1 gusting 2 6.7
2020-Feb-27 00:41 247 0 gusting 4 19.4
2020-Feb-27 00:36 247 1 gusting 3 19.4
2020-Feb-27 00:31 247 1 gusting 4 6.1
2020-Feb-27 00:16 247 5.6
2020-Feb-27 00:01 247 5.6
2020-Feb-26 23:56 247 5.6
2020-Feb-26 23:51 247 0 gusting 1 19.4
2020-Feb-26 23:46 247 0 gusting 1 5.6
2020-Feb-26 23:41 247 5.6
2020-Feb-26 23:36 247 0 gusting 3 5.6
2020-Feb-26 23:31 247 0 gusting 3 5.6
2020-Feb-26 23:26 247 0 gusting 2 5.6
2020-Feb-26 23:21 247 6.1
2020-Feb-26 23:16 247 5.6
2020-Feb-26 23:11 247 0 gusting 1 6.1
2020-Feb-26 23:06 247 1 gusting 3 6.1
2020-Feb-26 23:01 247 6.1
2020-Feb-26 22:56 247 1 gusting 4 6.1
2020-Feb-26 22:51 247 1 gusting 3 6.1
2020-Feb-26 22:41 247 2 gusting 5 6.1
2020-Feb-26 22:36 247 1 gusting 4 6.1
2020-Feb-26 22:26 247 0 gusting 5 6.1
2020-Feb-26 22:21 247 3 gusting 4 6.7
2020-Feb-26 22:11 247 1 gusting 4 6.7
2020-Feb-26 22:06 247 3 gusting 5 6.7
2020-Feb-26 22:01 247 2 gusting 9 6.7
2020-Feb-26 21:56 247 3 gusting 7 6.7
2020-Feb-26 21:51 247 3 gusting 6 6.7
2020-Feb-26 21:46 247 4 gusting 7 6.7
2020-Feb-26 21:31 247 4 gusting 7 6.7
2020-Feb-26 21:26 247 5 gusting 5 6.7
2020-Feb-26 21:21 247 4 gusting 6 6.7
2020-Feb-26 21:16 247 5 gusting 6 6.7
2020-Feb-26 21:11 247 2 gusting 10 6.1
2020-Feb-26 21:06 247 5 gusting 4 6.1
2020-Feb-26 21:01 247 3 gusting 10 6.1
2020-Feb-26 20:56 247 5 gusting 9 6.1
2020-Feb-26 20:51 247 5 gusting 6 6.1
2020-Feb-26 20:46 247 2 gusting 7 6.1
2020-Feb-26 20:36 247 2 gusting 4 6.1
2020-Feb-26 20:31 247 2 gusting 7 6.1
2020-Feb-26 20:26 247 5 gusting 6 6.1
2020-Feb-26 20:21 247 2 gusting 3 6.1
2020-Feb-26 20:11 247 5 gusting 10 5.6
2020-Feb-26 20:06 247 5 gusting 7 5.6
2020-Feb-26 19:56 247 4 gusting 8 5.6
2020-Feb-26 19:51 247 3 gusting 6 5.6
2020-Feb-26 19:46 247 3 gusting 6 6.1
2020-Feb-26 19:41 247 2 gusting 8 19.4
2020-Feb-26 19:31 247 2 gusting 7 6.1
2020-Feb-26 19:26 247 4 gusting 10 7.2
2020-Feb-26 19:21 247 6 gusting 11 6.7
2020-Feb-26 19:16 247 6 gusting 4 6.7
2020-Feb-26 19:11 247 5 gusting 6 7.8
2020-Feb-26 19:06 247 3 gusting 10 7.2
2020-Feb-26 19:01 247 5 gusting 6 7.2
2020-Feb-26 18:56 247 4 gusting 6 20.0
2020-Feb-26 18:51 247 5 gusting 6 7.2
2020-Feb-26 18:41 247 2 gusting 5 7.2
2020-Feb-26 18:16 225 2 gusting 6 7.2
2020-Feb-26 18:11 202 4 gusting 3 7.2
2020-Feb-26 18:06 247 1 gusting 6 7.2
2020-Feb-26 18:01 315 2 gusting 6 19.4
2020-Feb-26 17:56 292 2 gusting 5 7.2
2020-Feb-26 17:46 225 1 gusting 9 19.4
2020-Feb-26 17:31 247 5 gusting 8 19.4
2020-Feb-26 17:26 247 1 gusting 6 19.4
2020-Feb-26 17:21 247 4 gusting 6 7.2
2020-Feb-26 16:56 202 3 gusting 10 20.0
2020-Feb-26 16:46 292 4 gusting 5 20.0
2020-Feb-26 16:41 202 2 gusting 5 8.3
2020-Feb-26 16:36 202 2 gusting 6 8.9
2020-Feb-26 16:31 202 3 gusting 4 20.0
2020-Feb-26 16:16 202 2 gusting 2 21.1
2020-Feb-26 16:06 202 1 gusting 9 10.6
2020-Feb-26 16:01 202 5 gusting 9 20.0
2020-Feb-26 15:56 202 3 gusting 6 20.0
2020-Feb-26 15:46 337 5 gusting 6 21.1
2020-Feb-26 15:41 247 4 gusting 8 11.1
2020-Feb-26 15:31 225 1 gusting 9 20.0
2020-Feb-26 15:26 225 4 gusting 4 10.0
2020-Feb-26 15:11 247 5 gusting 6 10.6
2020-Feb-26 15:06 337 2 gusting 11 20.6